Location: Wapato
(46.4478°N, 120.4212°W)
Time: 05:30:38
(UTC+00:00)

Injun/Solrad 3 - All Passes

Search period start: 10 May 2026 00:00
Search period end: 20 May 2026 00:00
Orbit: 868 x 988 km, 66.8° (Epoch: 9 May)

Date Brightness Start Highest point End Pass type
(mag) Time Alt. Az. Time Alt. Az. Time Alt. Az.
10 May - 00:52:44 10° SSW 00:58:45 78° ESE 01:05:01 10° NE daylight
10 May - 02:40:48 10° W 02:45:57 27° NW 02:51:14 10° NNE daylight
10 May - 04:32:21 10° NW 04:34:49 12° N 04:37:19 10° NNE visible
10 May - 06:21:15 10° NNW 06:24:22 14° NNE 06:27:31 10° NE visible
10 May - 08:07:11 10° NNW 08:12:58 34° NE 08:18:47 10° ESE visible
10 May - 09:53:33 10° NW 09:59:52 61° WSW 10:06:12 10° SSE visible
10 May - 11:44:06 10° W 11:45:06 10° W 11:46:06 10° WSW visible
10 May - 23:19:36 10° SSE 23:23:59 21° ESE 23:28:28 10° ENE daylight
11 May - 01:03:45 10° SW 01:09:47 75° NW 01:16:04 10° NNE daylight
11 May - 02:52:46 10° W 02:57:24 22° NNW 03:02:08 10° NNE daylight
11 May - 04:44:34 10° NNW 04:46:34 11° N 04:48:35 10° NNE visible
11 May - 06:32:12 10° NNW 06:36:02 16° NNE 06:39:54 10° ENE visible
11 May - 08:18:07 10° NNW 08:24:15 45° NE 08:30:25 10° ESE visible
11 May - 10:04:47 10° NW 10:10:46 42° WSW 10:16:45 10° S visible
11 May - 23:29:29 10° S 23:34:43 32° ESE 23:40:06 10° NE daylight
12 May - 01:15:01 10° SW 01:20:55 53° NW 01:27:04 10° NNE daylight
12 May - 03:04:55 10° WNW 03:08:56 17° NNW 03:13:02 10° NNE daylight
12 May - 04:56:25 10° NNW 04:58:20 11° N 05:00:16 10° NNE visible
12 May - 06:43:05 10° NNW 06:47:37 20° NNE 06:52:10 10° ENE visible
12 May - 08:29:05 10° NNW 08:35:27 62° NE 08:41:50 10° SE visible
12 May - 10:16:11 10° NW 10:21:34 29° WSW 10:26:56 10° SSW visible
12 May - 23:39:48 10° S 23:45:31 47° ESE 23:51:27 10° NE daylight
13 May - 01:26:29 10° WSW 01:32:09 39° NW 01:38:02 10° NNE daylight
13 May - 03:17:12 10° NW 03:20:34 15° NNW 03:23:59 10° NNE daylight
13 May - 05:07:48 10° NNW 05:10:06 12° N 05:12:23 10° NNE visible
13 May - 06:53:59 10° NNW 06:59:07 25° NE 07:04:17 10° E visible
13 May - 08:40:05 10° NNW 08:46:33 86° ENE 08:53:01 10° SSE visible
13 May - 10:27:55 10° WNW 10:32:18 19° WSW 10:36:39 10° SSW visible
13 May - 22:09:12 10° ESE 22:11:09 12° E 22:13:07 10° E daylight
13 May - 23:50:27 10° SSW 23:56:26 70° ESE 00:02:39 10° NE daylight
14 May - 01:38:11 10° W 01:43:29 30° NW 01:48:57 10° NNE daylight
14 May - 03:29:33 10° NW 03:32:15 13° NNW 03:34:59 10° NNE daylight
14 May - 05:18:55 10° NNW 05:21:50 13° NNE 05:24:46 10° NE visible
14 May - 07:04:53 10° NNW 07:10:32 31° NE 07:16:12 10° ESE visible
14 May - 08:51:10 10° NW 08:57:34 69° WSW 09:03:57 10° SSE visible
14 May - 10:40:28 10° WNW 10:42:55 12° W 10:45:23 10° WSW visible
14 May - 22:17:45 10° SE 22:21:45 19° ESE 22:25:51 10° ENE daylight
15 May - 00:01:22 10° SW 00:07:26 83° WNW 00:13:44 10° NNE daylight
15 May - 01:50:05 10° W 01:54:55 23° NNW 01:59:51 10° NNE daylight
15 May - 03:41:50 10° NNW 03:43:59 12° N 03:46:09 10° NNE daylight
15 May - 05:29:52 10° NNW 05:33:30 15° NNE 05:37:09 10° NE visible
15 May - 07:15:48 10° NNW 07:21:51 41° NE 07:27:55 10° ESE visible
15 May - 09:02:21 10° NW 09:08:29 48° WSW 09:14:36 10° S visible
15 May - 22:27:27 10° SSE 22:32:27 28° ESE 22:37:37 10° NE daylight
16 May - 00:12:32 10° SW 00:18:32 60° NW 00:24:45 10° NNE daylight
16 May - 02:02:10 10° WNW 02:06:25 19° NNW 02:10:45 10° NNE daylight
16 May - 03:53:49 10° NNW 03:55:45 11° N 03:57:41 10° NNE daylight
16 May - 05:40:48 10° NNW 05:45:07 18° NNE 05:49:27 10° ENE visible
16 May - 07:26:45 10° NNW 07:33:04 56° NE 07:39:24 10° SE visible
16 May - 09:13:42 10° NW 09:19:20 33° WSW 09:24:56 10° S visible
16 May - 22:37:38 10° S 22:43:14 42° ESE 22:49:02 10° NE daylight
17 May - 00:23:57 10° WSW 00:29:44 43° NW 00:35:44 10° NNE daylight
17 May - 02:14:25 10° WNW 02:18:01 16° NNW 02:21:41 10° NNE daylight
17 May - 04:05:21 10° NNW 04:07:31 12° N 04:09:41 10° NNE visible
17 May - 05:51:41 10° NNW 05:56:38 23° NNE 06:01:37 10° E visible
17 May - 07:37:44 10° NNW 07:44:13 77° NE 07:50:40 10° SE visible
17 May - 09:25:18 10° WNW 09:30:04 22° WSW 09:34:50 10° SSW visible
17 May - 22:48:11 10° SSW 22:54:06 61° ESE 23:00:17 10° NE daylight
18 May - 00:35:35 10° WSW 00:41:02 32° NW 00:46:39 10° NNE daylight
18 May - 02:26:45 10° NW 02:29:41 13° NNW 02:32:40 10° NNE daylight
18 May - 04:16:33 10° NNW 04:19:16 13° NNE 04:22:00 10° NE visible
18 May - 06:02:35 10° NNW 06:08:05 29° NE 06:13:36 10° E visible
18 May - 07:48:48 10° NW 07:55:15 77° WSW 08:01:41 10° SSE visible
18 May - 09:37:27 10° WNW 09:40:43 14° W 09:44:00 10° SW visible
18 May - 21:16:00 10° SE 21:19:33 16° ESE 21:23:09 10° ENE daylight
18 May - 22:59:01 10° SSW 23:05:05 88° ESE 23:11:24 10° NE daylight
19 May - 00:47:25 10° W 00:52:26 25° NW 00:57:34 10° NNE daylight
19 May - 02:39:04 10° NNW 02:41:24 12° N 02:43:46 10° NNE daylight
19 May - 04:27:33 10° NNW 04:30:57 15° NNE 04:34:23 10° NE visible
19 May - 06:13:29 10° NNW 06:19:26 38° NE 06:25:23 10° ESE visible
19 May - 07:59:57 10° NW 08:06:12 54° WSW 08:12:25 10° S visible
19 May - 21:25:27 10° SSE 21:30:12 25° ESE 21:35:05 10° NE daylight
19 May - 23:10:06 10° SW 23:16:09 67° NW 23:22:27 10° NNE daylight
